Miscellaneous Local Product
Issued by NWS Hastings, NE

Home | Current Version | Previous Version | Graphics & Text | Print | Product List | Glossary On
Versions: 1 2 3 4 5 6 7 8 9 10 11 12 13 14 15 16 17 18 19 20 21 22 23 24 25 26 27 28 29 30 31 32 33 34 35 36 37 38 39 40 41 42 43 44 45 46 47 48 49 50
000
AXUS43 KGID 202202
MISGRI

GID CWA HOURLY WEATHER ROUNDUP
NATIONAL WEATHER SERVICE HASTINGS NE
500 PM CDT MON OCT 20 2014

NOTE: "FAIR" INDICATES FEW OR NO CLOUDS BELOW 12,000 FEET WITH NO
SIGNIFICANT WEATHER AND/OR OBSTRUCTIONS TO VISIBILITY.

...SOUTH CENTRAL NEBRASKA...

CITY           SKY/WX    TMP DP  RH WIND       PRES   REMARKS
GRAND ISLAND   SUNNY     75  39  27 CALM      30.07F
HASTINGS       SUNNY     73  38  27 SE5       30.06F
KEARNEY        SUNNY     73  43  33 SE3       30.08S
ORD            SUNNY     73  41  31 S7        30.04F
YORK           SUNNY     72  37  28 CALM      30.06F
AURORA         SUNNY     74  34  23 CALM      30.06F
LEXINGTON      SUNNY     78  40  25 S7        30.06S
HOLDREGE       SUNNY     75  37  25 CALM      30.07S
HEBRON         SUNNY     74  34  23 CALM      30.05F

...NEBRASKA PANHANDLE...

CITY           SKY/WX    TMP DP  RH WIND       PRES   REMARKS
CHADRON        SUNNY     80  42  25 S14       29.94F
ALLIANCE       SUNNY     75  38  26 S15G24    30.02S
SCOTTSBLUFF    SUNNY     80  38  22 S15G22    29.99F
SIDNEY         SUNNY     77  36  22 S14G21    30.06S

...WESTERN AND NORTH CENTRAL NEBRASKA...

CITY           SKY/WX    TMP DP  RH WIND       PRES   REMARKS
VALENTINE      SUNNY     79  38  22 S14       30.00F
AINSWORTH      SUNNY     75  39  27 S10       30.03F
ONEILL         SUNNY     73  42  32 CALM      30.05F
BROKEN BOW     SUNNY     75  44  33 S8        30.06F
IMPERIAL       SUNNY     76  39  26 S15       30.06F
NORTH PLATTE   SUNNY     77  39  25 S10       30.05S
MCCOOK         SUNNY     78  38  23 S12       30.07S

...EASTERN NEBRASKA...

CITY           SKY/WX    TMP DP  RH WIND       PRES   REMARKS
NORFOLK        SUNNY     72  33  24 MISG      30.05S
SO SIOUX CITY  SUNNY     72  40  31 N8        30.04S
TEKAMAH        SUNNY     73  36  25 NW6       30.04R
COLUMBUS       SUNNY     72  34  25 CALM      30.07S
ALBION         SUNNY     72  36  26 CALM      30.06S
OMAHA EPPLEY   SUNNY     72  37  28 W5        30.04S
OFFUTT AFB     SUNNY     71  39  31 VRB1      30.04S
MILLARD        SUNNY     71  41  33 CALM      30.04S
LINCOLN        SUNNY     74  36  25 CALM      30.05F
NEBRASKA CITY  SUNNY     71  26  18 N7        30.04S
BEATRICE       SUNNY     72  39  29 N6        30.05S
FALLS CITY     SUNNY     74  35  24 N3        30.03S

...NORTHERN KANSAS...

CITY           SKY/WX    TMP DP  RH WIND       PRES   REMARKS
GOODLAND       SUNNY     75  40  28 S14       30.11S
HILL CITY      SUNNY     79  38  22 SE5       30.07S
NORTON         CLEAR     79  30  17 CALM      30.06S
PHILLIPSBURG   SUNNY     81  39  22 CALM      30.06S
BELOIT         SUNNY     77  41  27 CALM      30.04S
HAYS           SUNNY     77  43  29 E5        30.07S
RUSSELL        SUNNY     77  44  30 E5        30.05S
CONCORDIA      SUNNY     76  44  32 NE6       30.05S
SALINA         SUNNY     77  45  32 NE6       30.05R
TOPEKA         SUNNY     75  45  34 N8        30.03S



USA.gov is the U.S. government's official web portal to all federal, state and local government web resources and services.